Location: Im Fang
(46.6019°N, 7.2397°E)
Time: 00:03:26
(UTC+00:00)

Cosmos 2056 Rocket - Pass Details

Date: 08 December 2019
Orbit: 741 x 801 km, 74.0° (Epoch: 17 January)

Event Time Altitude Azimuth Distance (km) Brightness Sun altitude
Exits shadow 05:13:15 10° 225° (SW) 2,266 5.6 -17.8°
Reaches altitude 10° 05:13:18 10° 226° (SW) 2,250 5.6 -17.8°
Maximum altitude 05:18:09 44° 298° (WNW) 1,018 3.7 -17.0°
Drops below altitude 10° 05:23:04 10° 11° (N) 2,270 5.9 -16.2°
Sets 05:25:33 0° 18° (NNE) 3,203 6.7 -15.8°
